Home   Weather   Bad Mergentheim   Past weeks

Flag for Germany Past Weather in Bad Mergentheim, Baden-Württemberg, Germany — Yesterday and Last 2 Weeks

45 °F


Feels Like: 45 °F
Forecast: 40 / 59 °F
Wind: 2 mph from Northwest

Location: Niederstetten

Current Time: Oct 27, 2016 at 3:16:39 AM

Latest Report: Oct 27, 2016 at 2:20 AM

Visibility: N/A

Pressure: 30.42 "Hg

Humidity: 87%

Dew Point: 41 °F

Location of Bad MergentheimLocation

Past Weather in Bad Mergentheim — Graph


Bad Mergentheim Temperature Yesterday

Maximum temperature yesterday: 52 °F (at 12:00 PM)
Minimum temperature yesterday: 46 °F (at 5:45 AM)
Average temperature yesterday: 49 °F

High & Low Weather Summary for the Past Weeks

High66 °F (Oct 16, 2:20 PM)100% (Oct 12, 6:20 AM)30.42 "Hg (Oct 12, 6:20 AM)
Low36 °F (Oct 12, 8:20 AM)46% (Oct 16, 3:20 PM)29.68 "Hg (Oct 14, 6:20 PM)
Average47 °F88%30.03 "Hg
* Reported Oct 12 1:20 AM — Oct 27 1:20 AM, Bad Mergentheim, Weather by CustomWeather, © 2016

Note: Actual official high and low records may vary slightly from our data, if they occured in-between our weather recording intervals... More about our weather records


Bad Mergentheim Weather History for the Previous 24 Hours

Scroll right to see more
Time TempWeatherWind HumidityBarometerVisibility
1:20 AM
Thu, Oct 27
46 °FOvercast.3 mph82%30.42 "HgN/A
12:20 AM46 °FOvercast.2 mph87%30.42 "HgN/A
11:20 PM
Wed, Oct 26
46 °FOvercast.2 mph87%30.42 "HgN/A
10:20 PM48 °FOvercast.1 mph87%30.42 "HgN/A
9:20 PM48 °FOvercast.1 mph87%30.39 "HgN/A
8:20 PM48 °FOvercast.2 mph87%30.39 "HgN/A
7:20 PM48 °FOvercast.1 mph87%30.36 "HgN/A
6:20 PM50 °FLow clouds.2 mph82%30.36 "HgN/A
5:20 PM50 °FOvercast.1 mph88%30.36 "HgN/A
4:20 PM50 °FOvercast.2 mph88%30.36 "HgN/A
2:20 PM50 °FPartly sunny.3 mph82%30.36 "HgN/A
1:20 PM50 °FPartly sunny.3 mph88%30.36 "HgN/A
12:20 PM52 °FPartly sunny.3 mph77%30.36 "Hg6 mi
12:00 PM52 °FPartly sunny.2 mph77%30.36 "Hg6 mi
11:20 AM50 °FPartly sunny.1 mph82%30.33 "Hg4 mi
10:20 AM48 °FMostly cloudy.2 mph94%30.36 "Hg4 mi
9:20 AM46 °FFog.3 mph100%30.33 "Hg3 mi
8:20 AM46 °FFog.2 mph100%30.33 "Hg3 mi
7:20 AM46 °FFog.1 mph100%30.33 "Hg2 mi
6:20 AM46 °FFog.3 mph100%30.30 "Hg3 mi
5:45 AM46 °FPartly cloudy.No wind93%30.30 "Hg5 mi
5:20 AM48 °FFog.No wind94%30.30 "Hg5 mi
4:20 AM48 °FFog.2 mph94%30.30 "Hg5 mi
3:59 AM48 °FFog.1 mph94%30.30 "Hg3 mi
3:20 AM48 °FLow clouds.1 mph94%30.30 "Hg1 mi
3:01 AM48 °FOvercast.2 mph94%30.30 "Hg1 mi
Weather by CustomWeather, © 2016

See weather overviewHow to use our weather pages